Location: Bruderhein
(53.8035°N, 112.9265°W)
Time: 13:22:44
(UTC+00:00)

deb Delta 139 - Pass Details

Date: 09 December 2023
Orbit: 731 x 794 km, 98.6° (Epoch: 01 March)

Event Time Altitude Azimuth Distance (km) Brightness Sun altitude
Rises 02:49:01 0° 208° (SSW) 3,248 ? -30.7°
Reaches altitude 10° 02:51:59 10° 226° (SW) 2,314 ? -31.1°
Maximum altitude 02:55:34 19° 271° (W) 1,762 ? -31.7°
Drops below altitude 10° 02:59:08 10° 316° (NW) 2,297 ? -32.2°
Sets 03:02:06 0° 334° (NNW) 3,215 ? -32.6°
